National Weather Service United States Department of Commerce

Latest Hourly Weather Roundup

TOPSWRTT 000
TTAA00 KICT 190712

Wichita AWIPS Roundup
National Weather Service Wichita KS
200 AM CDT FRI OCT 19 2018

....Central Kansas....
  
CITY           SKY/WX    TMP DP  RH WIND       PRES   REMARKS
RUSSELL        CLOUDY    52  51  97 S13       30.15F                  
SALINA         CLOUDY    55  51  86 S12       30.21F                  
GREAT BEND     NOT AVBL                                               
ELLSWORTH      CLOUDY    54  48  82 S10       30.19S                  
LYONS          CLOUDY    53  50  90 S14       30.20F                  
MCPHERSON      CLOUDY    55  50  82 S13       30.22F                  
HAYS           PTCLDY    50  48  93 S9        30.16F                  

....South Central Kansas....
  
CITY           SKY/WX    TMP DP  RH WIND       PRES   REMARKS
HUTCHINSON     CLOUDY    54  51  90 SW10      30.23S                  
NEWTON         CLOUDY    53  49  86 S13       30.23S                  
KINGMAN        CLOUDY    54  52  94 S8        30.23S                  
WICHITA (ICT)  CLOUDY    54  52  93 S8        30.23F                  
JABARA ARPT    CLOUDY    53  51  93 S12       30.23F                  
BEECH ARPT     CLOUDY    52  49  88 S7        30.24S                  
MCCONNELL AFB  CLOUDY    53  49  87 SW8       30.24F                  
BENTON         MOCLDY    52  48  87 S8        30.24S                  
EL DORADO      FAIR      54  48  82 S9        30.23F                  
AUGUSTA        CLOUDY    52  50  93 S3        30.24F                  
HARPER         NOT AVBL                                               
WELLINGTON     CLOUDY    54  52  94 S6        30.25R                  
WINFIELD       CLOUDY    53  52  96 SE6       30.25F                  
 
....Southeast Kansas....
  
CITY           SKY/WX    TMP DP  RH WIND       PRES   REMARKS
EUREKA         NOT AVBL                                               
IOLA           CLOUDY    50  50  99 S3        30.28F                  
CHANUTE        CLOUDY    52  52 100 CALM      30.27F                  
PARSONS        CLOUDY    53  52  96 CALM      30.28F                  
COFFEYVILLE    CLOUDY    54  52  93 CALM      30.27F                  
INDEPENDENCE   LGT RAIN  53  52  97 S3        30.28S                  
FORT SCOTT     MOCLDY    52  46  82 CALM      30.26F                  
PITTSBURG      CLOUDY    56  50  81 CALM      30.27S                  

....Western Kansas....
  
CITY           SKY/WX    TMP DP  RH WIND       PRES   REMARKS
GOODLAND       MOCLDY    47  44  90 SW6       30.12S                  
HILL CITY      CLOUDY    52  48  86 SW10      30.16F                  
LIBERAL        MOCLDY    47  46  97 S13       30.19F                  
GARDEN CITY    CLOUDY    48  46  93 SW16      30.16F                  
DODGE CITY     CLOUDY    50  45  83 S16       30.18F                  
PRATT          CLOUDY    53  51  94 S13       30.22S                  
MEDICINE LODGE   N/A     52  52 100 S8        30.24S                  

....Northeast Kansas....
  
CITY           SKY/WX    TMP DP  RH WIND       PRES   REMARKS
CONCORDIA      CLOUDY    53  47  79 S8        30.18F                  
TOPEKA         CLOUDY    56  43  61 S6        30.22S                  
MANHATTAN      CLOUDY    55  47  74 SW10      30.21S                  
LAWRENCE       CLOUDY    55  44  66 S9        30.23F                  
OLATHE         CLOUDY    53  42  66 S7        30.23F                  
EMPORIA        PTCLDY    51  46  83 S9        30.24S                  

....Oklahoma....
  
CITY           SKY/WX    TMP DP  RH WIND       PRES   REMARKS
GAGE           LGT RAIN  51  49  92 SW9       30.23F                  
PONCA CITY     CLOUDY    54  52  93 S5        30.26F                  
BARTLESVILLE   LGT RAIN  54  53  97 CALM      30.28F                  
TULSA          LGT RAIN  57  47  69 SE8       30.26F                  
OKLAHOMA CITY  CLOUDY    53  52  96 CALM      30.26F                  

Note: "fair" indicates few or no clouds below 12,000 feet with no
significant weather and/or obstructions to visibility.